TAP11SV LEZL-LPPT

Flight info

Callsign TAP11SV
Flight time 0h 41m
Altitude 30000
Route ONUBA DCT NAPES DCT OSLEP DCT MINTA DCT VATZI
Aircraft A320/M-SDE3FGHIRWY/LB1

Departure

Time 2026-04-27 20:59
Airport Seville Airport (LEZL)

Arrival

Time 2026-04-27 21:40
Airport Lisbon Humberto Delgado Airport (LPPT)
Time Latitude Longitude Altitude Speed Heading
2026-04-27 20:39 37.42244 -5.89913 94 ft 0 kts 314°
2026-04-27 20:49 37.42233 -5.89899 69 ft 4 kts 320°
2026-04-27 20:50 37.42211 -5.89880 92 ft 4 kts 337°
2026-04-27 20:50 37.42185 -5.89871 92 ft 4 kts
2026-04-27 20:50 37.42167 -5.89878 94 ft 0 kts 44°
2026-04-27 20:53 37.42182 -5.89860 94 ft 5 kts 44°
2026-04-27 20:53 37.42209 -5.89827 94 ft 8 kts 44°
2026-04-27 20:53 37.42252 -5.89773 94 ft 8 kts 49°
2026-04-27 20:54 37.42215 -5.89655 96 ft 11 kts 134°
2026-04-27 20:54 37.42167 -5.89595 95 ft 8 kts 135°
2026-04-27 20:54 37.42130 -5.89549 97 ft 10 kts 135°
2026-04-27 20:55 37.42062 -5.89460 98 ft 16 kts 133°
2026-04-27 20:55 37.41989 -5.89353 99 ft 16 kts 112°
2026-04-27 20:55 37.41984 -5.89212 100 ft 16 kts 89°
2026-04-27 20:55 37.41985 -5.89055 101 ft 19 kts 89°
2026-04-27 20:56 37.41985 -5.88883 102 ft 20 kts 90°
2026-04-27 20:56 37.41987 -5.88699 103 ft 22 kts 90°
2026-04-27 20:56 37.41986 -5.88479 104 ft 27 kts 90°
2026-04-27 20:56 37.41988 -5.88237 106 ft 28 kts 90°
2026-04-27 20:57 37.41989 -5.87989 107 ft 29 kts 90°
2026-04-27 20:57 37.41991 -5.87737 108 ft 29 kts 88°
2026-04-27 20:57 37.41976 -5.87506 110 ft 23 kts 115°
2026-04-27 20:57 37.41861 -5.87436 115 ft 18 kts 203°
2026-04-27 20:58 37.41800 -5.87558 116 ft 14 kts 267°
2026-04-27 20:58 37.41799 -5.87746 112 ft 46 kts 270°
2026-04-27 20:58 37.41797 -5.88442 107 ft 112 kts 270°
2026-04-27 20:58 37.41795 -5.89675 115 ft 162 kts 269°
2026-04-27 20:59 37.41820 -5.91082 682 ft 164 kts 275°
2026-04-27 20:59 37.42002 -5.92503 1263 ft 165 kts 281°
2026-04-27 20:59 37.42214 -5.93915 1861 ft 165 kts 277°
2026-04-27 20:59 37.42346 -5.95423 2130 ft 184 kts 275°
2026-04-27 21:00 37.42469 -5.97134 2370 ft 209 kts 274°
2026-04-27 21:00 37.42603 -5.99068 2738 ft 234 kts 275°
2026-04-27 21:00 37.42753 -6.01214 3193 ft 258 kts 275°
2026-04-27 21:00 37.42914 -6.03518 3900 ft 269 kts 275°
2026-04-27 21:01 37.43079 -6.05888 4792 ft 274 kts 275°
2026-04-27 21:01 37.43247 -6.08290 5680 ft 278 kts 274°
2026-04-27 21:01 37.43418 -6.10731 6561 ft 282 kts 274°
2026-04-27 21:01 37.43592 -6.13193 7451 ft 283 kts 274°
2026-04-27 21:02 37.43769 -6.15668 8386 ft 284 kts 274°
2026-04-27 21:02 37.43945 -6.18143 9342 ft 284 kts 274°
2026-04-27 21:02 37.44121 -6.20621 10203 ft 288 kts 273°
2026-04-27 21:02 37.44303 -6.23232 10514 ft 311 kts 273°
2026-04-27 21:03 37.44497 -6.26039 10773 ft 333 kts 273°
2026-04-27 21:03 37.44704 -6.28996 11337 ft 343 kts 273°
2026-04-27 21:03 37.44914 -6.32008 12071 ft 346 kts 272°
2026-04-27 21:03 37.45123 -6.35042 12841 ft 349 kts 272°
2026-04-27 21:04 37.45332 -6.38097 13621 ft 352 kts 271°
2026-04-27 21:04 37.45543 -6.41181 14280 ft 355 kts 272°
2026-04-27 21:04 37.45756 -6.44303 14905 ft 360 kts 272°
2026-04-27 21:04 37.45969 -6.47418 15505 ft 364 kts 272°
2026-04-27 21:05 37.46186 -6.50618 16107 ft 369 kts 272°
2026-04-27 21:05 37.46404 -6.53862 16701 ft 374 kts 272°
2026-04-27 21:05 37.46624 -6.57139 17290 ft 378 kts 273°
2026-04-27 21:05 37.46846 -6.60455 17877 ft 382 kts 273°
2026-04-27 21:06 37.47070 -6.63816 18409 ft 387 kts 273°
2026-04-27 21:06 37.47297 -6.67206 18908 ft 390 kts 273°
2026-04-27 21:06 37.47528 -6.70630 19427 ft 394 kts 273°
2026-04-27 21:06 37.47757 -6.74077 19943 ft 397 kts 273°
2026-04-27 21:07 37.47984 -6.77552 20449 ft 400 kts 273°
2026-04-27 21:07 37.48214 -6.81059 20941 ft 403 kts 273°
2026-04-27 21:07 37.48366 -6.83394 21266 ft 405 kts 273°
2026-04-27 21:07 37.48673 -6.88145 21913 ft 409 kts 273°
2026-04-27 21:08 37.48824 -6.90519 22234 ft 411 kts 273°
2026-04-27 21:08 37.49051 -6.94117 22703 ft 414 kts 273°
2026-04-27 21:08 37.49354 -6.98939 23323 ft 419 kts 272°
2026-04-27 21:08 37.49511 -7.01418 23612 ft 421 kts 273°
2026-04-27 21:09 37.49749 -7.05107 24000 ft 423 kts 273°
2026-04-27 21:09 37.49983 -7.08762 24375 ft 426 kts 273°
2026-04-27 21:09 37.50219 -7.12491 24759 ft 428 kts 273°
2026-04-27 21:09 37.50454 -7.16241 25132 ft 431 kts 273°
2026-04-27 21:10 37.50686 -7.20010 25503 ft 433 kts 273°
2026-04-27 21:10 37.50915 -7.23802 25864 ft 435 kts 273°
2026-04-27 21:10 37.51146 -7.27610 26226 ft 438 kts 273°
2026-04-27 21:10 37.51381 -7.31452 26590 ft 440 kts 273°
2026-04-27 21:11 37.51619 -7.35311 26946 ft 443 kts 273°
2026-04-27 21:11 37.51856 -7.39193 27294 ft 445 kts 273°
2026-04-27 21:11 37.52093 -7.43098 27637 ft 447 kts 273°
2026-04-27 21:11 37.52325 -7.47015 27961 ft 450 kts 273°
2026-04-27 21:12 37.52555 -7.50914 28279 ft 452 kts 273°
2026-04-27 21:12 37.52790 -7.54874 28586 ft 455 kts 273°
2026-04-27 21:12 37.53028 -7.58855 28902 ft 457 kts 273°
2026-04-27 21:12 37.53263 -7.62855 29205 ft 459 kts 273°
2026-04-27 21:13 37.53496 -7.66879 29503 ft 461 kts 273°
2026-04-27 21:13 37.53729 -7.70917 29844 ft 462 kts 273°
2026-04-27 21:13 37.53961 -7.74948 29943 ft 457 kts 273°
2026-04-27 21:14 37.54407 -7.82869 29955 ft 451 kts 273°
2026-04-27 21:14 37.54851 -7.90755 29956 ft 450 kts 273°
2026-04-27 21:15 37.55287 -7.98632 29954 ft 450 kts 272°
2026-04-27 21:15 37.55712 -8.06464 29956 ft 450 kts 272°
2026-04-27 21:15 37.55924 -8.10394 29686 ft 449 kts 272°
2026-04-27 21:16 37.56134 -8.14321 29290 ft 450 kts 272°
2026-04-27 21:16 37.56346 -8.18269 28909 ft 451 kts 272°
2026-04-27 21:16 37.56557 -8.22223 28526 ft 452 kts 272°
2026-04-27 21:16 37.56766 -8.26172 28162 ft 453 kts 272°
2026-04-27 21:17 37.56974 -8.30133 27787 ft 451 kts 272°
2026-04-27 21:17 37.57178 -8.34072 27423 ft 449 kts 272°
2026-04-27 21:17 37.57381 -8.37985 27066 ft 447 kts 272°
2026-04-27 21:17 37.57589 -8.41881 26710 ft 444 kts 274°
2026-04-27 21:18 37.58217 -8.45681 26355 ft 444 kts 287°
2026-04-27 21:18 37.59602 -8.49145 26009 ft 444 kts 304°
2026-04-27 21:18 37.61507 -8.52203 25668 ft 443 kts 308°
2026-04-27 21:18 37.63456 -8.55206 25327 ft 441 kts 308°
2026-04-27 21:19 37.65470 -8.58108 24988 ft 439 kts 315°
2026-04-27 21:19 37.67750 -8.60669 24661 ft 438 kts 318°
2026-04-27 21:19 37.70048 -8.63174 24332 ft 436 kts 318°
2026-04-27 21:20 37.74613 -8.68150 23684 ft 431 kts 318°
2026-04-27 21:20 37.76879 -8.70621 23339 ft 429 kts 318°
2026-04-27 21:20 37.79136 -8.73086 22960 ft 426 kts 318°
2026-04-27 21:20 37.81374 -8.75533 22582 ft 424 kts 318°
2026-04-27 21:21 37.83601 -8.77966 22219 ft 422 kts 318°
2026-04-27 21:21 37.85811 -8.80392 21846 ft 419 kts 316°
2026-04-27 21:21 37.87671 -8.83184 21491 ft 414 kts 299°
2026-04-27 21:21 37.88732 -8.86532 21137 ft 409 kts 282°
2026-04-27 21:22 37.89286 -8.90062 20783 ft 408 kts 279°
2026-04-27 21:22 37.89796 -8.93590 20436 ft 406 kts 279°
2026-04-27 21:22 37.90300 -8.97093 20096 ft 404 kts 279°
2026-04-27 21:22 37.90803 -9.00592 19753 ft 402 kts 279°
2026-04-27 21:23 37.91303 -9.04064 19424 ft 401 kts 279°
2026-04-27 21:23 37.91802 -9.07525 19087 ft 399 kts 279°
2026-04-27 21:23 37.92300 -9.10984 18667 ft 397 kts 279°
2026-04-27 21:23 37.92784 -9.14407 18255 ft 394 kts 279°
2026-04-27 21:24 37.93381 -9.17786 17774 ft 392 kts 289°
2026-04-27 21:24 37.94696 -9.20781 17304 ft 390 kts 307°
2026-04-27 21:24 37.96392 -9.23452 16841 ft 388 kts 309°
2026-04-27 21:24 37.98096 -9.26090 16381 ft 385 kts 309°
2026-04-27 21:25 37.99782 -9.28710 15929 ft 382 kts 309°
2026-04-27 21:25 38.01451 -9.31325 15380 ft 381 kts 309°
2026-04-27 21:25 38.03107 -9.33943 14799 ft 381 kts 309°
2026-04-27 21:25 38.04729 -9.36535 14235 ft 380 kts 309°
2026-04-27 21:26 38.06362 -9.39167 13669 ft 379 kts 309°
2026-04-27 21:26 38.07984 -9.41798 13039 ft 378 kts 309°
2026-04-27 21:26 38.09590 -9.44403 12410 ft 368 kts 309°
2026-04-27 21:26 38.11156 -9.46940 11803 ft 363 kts 309°
2026-04-27 21:27 38.12711 -9.49461 11213 ft 361 kts 309°
2026-04-27 21:27 38.14258 -9.51969 10632 ft 360 kts 309°
2026-04-27 21:27 38.15796 -9.54459 10055 ft 352 kts 309°
2026-04-27 21:27 38.17279 -9.56860 9455 ft 340 kts 309°
2026-04-27 21:28 38.18710 -9.59181 8975 ft 325 kts 309°
2026-04-27 21:28 38.20072 -9.61391 8575 ft 310 kts 309°
2026-04-27 21:28 38.21373 -9.63505 8174 ft 298 kts 309°
2026-04-27 21:28 38.22755 -9.65407 7816 ft 290 kts 324°
2026-04-27 21:29 38.24515 -9.66581 7524 ft 284 kts 346°
2026-04-27 21:29 38.26453 -9.66844 7229 ft 281 kts
2026-04-27 21:29 38.28303 -9.66184 6997 ft 275 kts 28°
2026-04-27 21:29 38.29823 -9.64736 6953 ft 274 kts 47°
2026-04-27 21:30 38.31118 -9.62951 6955 ft 275 kts 48°
2026-04-27 21:30 38.32421 -9.61159 6956 ft 276 kts 48°
2026-04-27 21:30 38.33720 -9.59366 6953 ft 276 kts 48°
2026-04-27 21:30 38.35016 -9.57566 6957 ft 275 kts 48°
2026-04-27 21:31 38.36308 -9.55766 6953 ft 276 kts 48°
2026-04-27 21:31 38.37603 -9.53962 6876 ft 275 kts 48°
2026-04-27 21:31 38.38894 -9.52166 6762 ft 275 kts 48°
2026-04-27 21:31 38.40187 -9.50366 6637 ft 275 kts 47°
2026-04-27 21:32 38.41475 -9.48573 6515 ft 274 kts 47°
2026-04-27 21:32 38.42392 -9.47264 6427 ft 274 kts 49°
2026-04-27 21:32 38.43667 -9.45458 6304 ft 273 kts 47°
2026-04-27 21:33 38.44948 -9.43671 6175 ft 273 kts 47°
2026-04-27 21:33 38.46230 -9.41889 6048 ft 272 kts 47°
2026-04-27 21:33 38.47544 -9.40065 5922 ft 288 kts 47°
2026-04-27 21:33 38.48900 -9.38181 5784 ft 284 kts 47°
2026-04-27 21:34 38.50214 -9.36346 5726 ft 278 kts 47°
2026-04-27 21:34 38.51496 -9.34549 5722 ft 268 kts 47°
2026-04-27 21:34 38.52696 -9.32865 5716 ft 250 kts 47°
2026-04-27 21:34 38.53834 -9.31267 5614 ft 239 kts 47°
2026-04-27 21:35 38.54938 -9.29718 5367 ft 234 kts 47°
2026-04-27 21:35 38.56022 -9.28197 5108 ft 229 kts 46°
2026-04-27 21:35 38.57099 -9.26687 4767 ft 230 kts 46°
2026-04-27 21:35 38.58182 -9.25168 4392 ft 232 kts 46°
2026-04-27 21:36 38.59343 -9.23734 3957 ft 233 kts 32°
2026-04-27 21:36 38.60793 -9.22835 3619 ft 231 kts 22°
2026-04-27 21:36 38.62268 -9.22055 3320 ft 230 kts 22°
2026-04-27 21:36 38.63744 -9.21272 3037 ft 229 kts 22°
2026-04-27 21:37 38.65213 -9.20489 2734 ft 224 kts 21°
2026-04-27 21:37 38.66588 -9.19756 2452 ft 205 kts 21°
2026-04-27 21:37 38.67847 -9.19084 2205 ft 187 kts 21°
2026-04-27 21:37 38.68986 -9.18477 1981 ft 167 kts 20°
2026-04-27 21:38 38.69984 -9.17943 1783 ft 146 kts 20°
2026-04-27 21:38 38.70894 -9.17459 1582 ft 138 kts 21°
2026-04-27 21:38 38.71761 -9.16997 1403 ft 136 kts 20°
2026-04-27 21:38 38.72636 -9.16530 1213 ft 136 kts 18°
2026-04-27 21:39 38.73501 -9.16069 1034 ft 135 kts 19°
2026-04-27 21:39 38.74359 -9.15610 854 ft 133 kts 19°
2026-04-27 21:39 38.75220 -9.15152 685 ft 135 kts 18°
2026-04-27 21:39 38.76094 -9.14685 504 ft 137 kts 20°
2026-04-27 21:40 38.76966 -9.14213 357 ft 130 kts 19°
2026-04-27 21:40 38.77676 -9.13835 365 ft 86 kts 21°
2026-04-27 21:40 38.78085 -9.13618 366 ft 50 kts 23°
2026-04-27 21:40 38.78321 -9.13428 364 ft 33 kts 47°
2026-04-27 21:41 38.78323 -9.13266 359 ft 19 kts 188°
2026-04-27 21:41 38.78211 -9.13322 362 ft 17 kts 204°
2026-04-27 21:41 38.78105 -9.13384 361 ft 16 kts 201°
2026-04-27 21:41 38.77998 -9.13408 356 ft 16 kts 170°
2026-04-27 21:42 38.77878 -9.13390 354 ft 18 kts 179°
2026-04-27 21:42 38.77759 -9.13347 346 ft 19 kts 168°
2026-04-27 21:42 38.77615 -9.13326 338 ft 21 kts 176°
2026-04-27 21:42 38.77476 -9.13295 335 ft 20 kts 168°
2026-04-27 21:43 38.77348 -9.13260 338 ft 18 kts 171°
2026-04-27 21:43 38.77231 -9.13236 337 ft 16 kts 169°
2026-04-27 21:43 38.77126 -9.13205 336 ft 15 kts 167°
2026-04-27 21:43 38.77032 -9.13180 338 ft 13 kts 169°
2026-04-27 21:44 38.76947 -9.13157 339 ft 12 kts 161°
2026-04-27 21:44 38.76933 -9.13113 336 ft 1 kts 86°
2026-04-27 21:44 38.76932 -9.13102 337 ft 1 kts 91°
2026-04-27 21:44 38.76933 -9.13091 333 ft 1 kts 88°
2026-04-27 21:45 38.76935 -9.13079 337 ft 3 kts 79°
2026-04-27 21:45 38.76937 -9.13065 337 ft 0 kts 78°
2026-04-27 21:49 38.76937 -9.13066 337 ft 0 kts 78°